Location: Buckenweiler
(49.0667°N, 10.2500°E)
Time: 05:52:25
(UTC+00:00)

Meteor 2-13 Rocket - Pass Details

Date: 18 January 2026
Orbit: 935 x 958 km, 82.5° (Epoch: 17 February)

Event Time Altitude Azimuth Distance (km) Brightness Sun altitude
Rises 04:47:11 0° 346° (NNW) 3,637 7.3 -22.2°
Reaches altitude 10° 04:49:45 10° 342° (NNW) 2,684 6.6 -21.7°
Maximum altitude 04:55:39 52° 268° (W) 1,165 4.5 -20.8°
Drops below altitude 10° 05:01:29 10° 194° (SSW) 2,650 6.7 -19.8°
Sets 05:04:01 0° 189° (S) 3,587 7.5 -19.4°
